Printer-friendly version
Follow the MPC on Twitter Follow the MPC on Facebook The MPC blog
Minor Planet Center

MPEC 2003-C70 : COMET C/2002 Y1 (JUELS-HOLVORCEM)

The following Minor Planet Electronic Circular may be linked-to from your own Web pages, but must not otherwise be redistributed electronically.

A form allowing access to any MPEC is at the bottom of this page.


Read MPEC 2003-C69 Read MPEC 2003-C71


M.P.E.C. 2003-C70                                Issued 2003 Feb. 15, 17:49 UT

     The Minor Planet Electronic Circulars contain information on unusual
         minor planets and routine data on comets.  They are published
   on behalf of Commission 20 of the International Astronomical Union by the
          Minor Planet Center, Smithsonian Astrophysical Observatory,
                          Cambridge, MA 02138, U.S.A.

             Prepared using the Tamkin Foundation Computer Network

                              MPC@CFA.HARVARD.EDU
          URL http://cfa-www.harvard.edu/iau/mpc.html  ISSN 1523-6714

                       COMET C/2002 Y1 (JUELS-HOLVORCEM)

Observations:
    CK02Y010  C2003 02 05.93732 15 57 24.52 +49 06 12.8          14.0 N      235
    CK02Y010  C2003 02 06.77712 16 05 03.35 +50 07 28.8                      349
    CK02Y010  C2003 02 06.77762 16 05 03.63 +50 07 31.1                      349
    CK02Y010  C2003 02 06.77811 16 05 03.91 +50 07 33.1                      349
    CK02Y010  C2003 02 06.77863 16 05 04.20 +50 07 35.4           9.9 T      349
    CK02Y010  C2003 02 08.43686 16 21 24.95 +52 05 47.1           9.6 T      H41
    CK02Y010  C2003 02 08.44451 16 21 29.67 +52 06 19.4           9.4 T      H41
    CK02Y010  C2003 02 09.09038 16 28 20.30 +52 50 57.2                      046
    CK02Y010  C2003 02 09.09131 16 28 20.91 +52 51 00.6                      046
    CK02Y010  C2003 02 09.09185 16 28 21.24 +52 51 03.8                      046
    CK02Y010  C2003 02 09.09293 16 28 21.95 +52 51 07.7                      046
    CK02Y010  C2003 02 09.09403 16 28 22.65 +52 51 12.2                      046
    CK02Y010  C2003 02 09.09458 16 28 23.02 +52 51 14.6                      046
    CK02Y010  C2003 02 09.15242 16 29 00.72 +52 55 15.0          13.1 N      939
    CK02Y010  C2003 02 09.15575 16 29 02.91 +52 55 28.8          13.1 N      939
    CK02Y010  C2003 02 09.15907 16 29 05.07 +52 55 42.5          13.1 N      939
    CK02Y010  C2003 02 09.18522 16 29 21.82 +52 57 29.5          13.2 N      232
    CK02Y010  C2003 02 09.18757 16 29 23.32 +52 57 39.4          13.2 N      232
    CK02Y010  C2003 02 09.19112 16 29 25.57 +52 57 54.4          13.2 N      232
    CK02Y010  C2003 02 09.31470 16 30 46.70 +53 06 13.9          13.9 T      785
    CK02Y010  C2003 02 09.36933 16 31 23.06 +53 10 00.2          13.9 T      785
    CK02Y010  C2003 02 09.68647 16 34 54.07 +53 31 19.4                      340
    CK02Y010  C2003 02 09.68948 16 34 56.18 +53 31 31.5                      340
    CK02Y010  C2003 02 09.69564 16 35 00.26 +53 31 56.6           9.5 T      340
    CK02Y010  C2003 02 11.94498 17 01 58.35 +55 54 29.7                      A46
    CK02Y010  C2003 02 11.94588 17 01 59.07 +55 54 33.1                      A46
    CK02Y010  C2003 02 11.94678 17 01 59.78 +55 54 35.5                      A46
    CK02Y010  C2003 02 11.94769 17 02 00.42 +55 54 39.1                      A46
    CK02Y010  C2003 02 11.94858 17 02 01.16 +55 54 42.3                      A46
    CK02Y010  C2003 02 11.94948 17 02 01.77 +55 54 46.0                      A46
    CK02Y010  C2003 02 11.95038 17 02 02.44 +55 54 48.9                      A46
    CK02Y010  C2003 02 11.95127 17 02 03.18 +55 54 52.9                      A46
    CK02Y010  C2003 02 11.95216 17 02 03.91 +55 54 55.6                      A46
    CK02Y010  C2003 02 11.95306 17 02 04.53 +55 54 58.9                      A46
    CK02Y010  C2003 02 12.43818 17 08 21.63 +56 23 23.1          14.7 N      H43
    CK02Y010  C2003 02 12.44046 17 08 23.41 +56 23 30.9          14.7 N      H43
    CK02Y010  C2003 02 12.46583 17 08 43.28 +56 24 58.3          14.6 N      H43
    CK02Y010  C2003 02 12.88783 17 14 19.52 +56 48 28.4          13.5 N      235
    CK02Y010  C2003 02 13.00307 17 15 52.95 +56 54 52.7                      048
    CK02Y010  C2003 02 13.00350 17 15 53.27 +56 54 54.4                      048
    CK02Y010  C2003 02 13.00392 17 15 53.63 +56 54 55.5                      048
    CK02Y010  C2003 02 13.00436 17 15 53.98 +56 54 56.8                      048
    CK02Y010  C2003 02 13.00478 17 15 54.34 +56 54 58.2                      048
    CK02Y010  C2003 02 13.00520 17 15 54.63 +56 54 59.4                      048
    CK02Y010  C2003 02 13.00560 17 15 55.00 +56 55 00.9                      048
    CK02Y010  C2003 02 13.00602 17 15 55.34 +56 55 02.4                      048
    CK02Y010  C2003 02 13.00642 17 15 55.68 +56 55 04.0                      048
    CK02Y010  C2003 02 13.00683 17 15 56.00 +56 55 05.2                      048
    CK02Y010  C2003 02 13.31738 17 20 09.68 +57 11 49.9          10.9 T      785
    CK02Y010  C2003 02 13.34631 17 20 33.53 +57 13 21.5          10.7 T      785
    CK02Y010  C2003 02 13.40569 17 21 22.74 +57 16 33.9          14.6 N      H41
    CK02Y010  C2003 02 13.41347 17 21 29.25 +57 16 58.5          14.5 N      H41
    CK02Y010  C2003 02 13.95438 17 29 02.23 +57 44 34.2                      048
    CK02Y010  C2003 02 13.95462 17 29 02.41 +57 44 35.0                      048
    CK02Y010  C2003 02 13.95486 17 29 02.61 +57 44 35.4                      048
    CK02Y010  C2003 02 13.95509 17 29 02.82 +57 44 36.2                      048
    CK02Y010  C2003 02 13.95532 17 29 03.02 +57 44 36.9                      048
    CK02Y010  C2003 02 13.95555 17 29 03.18 +57 44 37.6                      048
    CK02Y010  C2003 02 13.95579 17 29 03.39 +57 44 38.3                      048
    CK02Y010  C2003 02 13.95602 17 29 03.58 +57 44 39.2                      048
    CK02Y010  C2003 02 13.95628 17 29 03.81 +57 44 39.7                      048
    CK02Y010  C2003 02 13.95651 17 29 03.97 +57 44 40.6                      048
    CK02Y010  C2003 02 15.14641 17 46 20.36 +58 40 05.5                      046
    CK02Y010  C2003 02 15.14781 17 46 21.65 +58 40 08.5                      046
    CK02Y010  C2003 02 15.14830 17 46 22.06 +58 40 10.5                      046
    CK02Y010  C2003 02 15.14876 17 46 22.48 +58 40 11.4                      046
    CK02Y010  C2003 02 15.14924 17 46 22.92 +58 40 12.1                      046
    CK02Y010  C2003 02 15.14970 17 46 23.35 +58 40 13.1                      046

Observer details:
046 Klet.  Observers J. Ticha, M. Tichy.  0.57-m f/5.2 reflector + CCD.
048 Hradec Kralove.  Observer M. Lehky.  0.40-m f/5 reflector + CCD.
232 Masquefa Observatory.  Observer E. Reina.  0.25-m f/6.3 Schmidt-Cassegrain
    + CCD.
235 CAST Observatory, Talmassons.  Observers R. Ligustri, V. Savani,
    P. Beltrame, G. Degano.  0.35-m f/5 reflector + CCD.
340 Toyonaka.  Observer Y. Ezaki.  0.30-m f/6.0 reflector + CCD.
349 Ageo.  Observer K. Kadota.  0.18-m f/5.5 reflector + CCD, 0.25-m f/5.0
    reflector + CCD.
785 Fitz-Randolph Observatory, Princeton.  Observer J. Maffei.  0.91-m
    reflector + CCD.
939 Observatorio Rodeno.  Observer J. Castellano.  0.20-m f/10
    Schmidt-Cassegrain + CCD.
A46 Lelekovice.  Observer K. Hornoch.  0.35-m f/4.7 reflector + CCD.
H41 Petit Jean Mountain.  Observers P. C. Sherrod, B. M. Sherrod.  0.41-m
    f/3.7 Schmidt-Cassegrain + CCD.
H43 Conway.  Observers P. C. Sherrod, B. M. Sherrod.  0.31-m f/3.75
    Schmidt-Cassegrain + CCD.

Orbital elements:
    C/2002 Y1 (Juels-Holvorcem)
Epoch 2003 May 1.0 TT = JDT 2452760.5
T 2003 Apr. 13.25108 TT                                 MPC
q   0.7137253            (2000.0)            P               Q
z  +0.0041345      Peri.  128.82427     +0.65309590     +0.72107103
 +/-0.0000833      Node   166.21929     -0.27261865     -0.06114493
e   0.9970491      Incl.  103.78142     +0.70650182     -0.69015785
From 394 observations 2002 Dec. 29-2003 Feb. 15, mean residual 0".59.

     The "original" and "future" barycentric values of 1/a are +0.004265
and +0.004659 (+/- 0.000083) AU**-1, respectively.

Brian G. Marsden             (C) Copyright 2003 MPC           M.P.E.C. 2003-C70

Read MPEC 2003-C69 Read MPEC 2003-C71


MPEC number:

Enter an MPEC number in one of the following forms:

  • 1997-B01 (the full form)
  • J97B01 (the packed version of the full form)
  • B01 (the abbreviated form)

Valid HTML 4.01!